Regional Weather Roundup
Issued by NWS

Home | Current Version | Previous Version | Graphics & Text | Print | Product List | Glossary On
Versions: 1 2 3 4 5 6 7 8 9 10 11 12 13 14 15 16 17 18 19 20 21 22 23 24 25 26 27 28 29 30 31 32 33 34 35 36 37 38 39 40 41 42 43 44 45 46 47 48 49 50
000
ASUS45 KCYS 062010
RWRWY

WYOMING REGIONAL WEATHER ROUNDUP
NATIONAL WEATHER SERVICE CHEYENNE WY
200 PM MDT MON JUL 06 2015

NOTE:  "FAIR" INDICATES FEW OR NO CLOUDS BELOW 12,000 FEET
WITH NO SIGNIFICANT WEATHER AND/OR OBSTRUCTIONS TO VISIBILITY.

WYZ001-062100-
YELLOWSTONE NATIONAL PARK

CITY           SKY/WX    TMP DP  RH WIND       PRES   REMARKS
LK YELLOWSTONE   N/A     62  44  51 VRB5      30.35F
W YELLOWSTONE  NOT AVBL

$$
WYZ002>013-054>058-071-098>099-062100-
NORTHERN WYOMING

CITY           SKY/WX    TMP DP  RH WIND       PRES   REMARKS
JACKSON        PTSUNNY   63  55  77 S5        30.28F
CODY           CLOUDY    64  50  59 SE5       30.26S
GREYBULL       PTSUNNY   70  50  49 CALM      30.20F
WORLAND        CLOUDY    67  52  58 VRB3      30.23F
SHERIDAN       CLOUDY    59  52  77 CALM      30.26F
BUFFALO        CLOUDY    56  52  86 S3        30.30F FOG
GILLETTE       CLOUDY    64  52  64 N6        30.26F
HULETT         CLOUDY    61  52  72 N5        30.29S
NEWCASTLE      MOCLDY    63  52  67 SE13      30.26S HAZE

$$
WYZ014>020-022>026-101>103-062100-
CENTRAL WYOMING

CITY           SKY/WX    TMP DP  RH WIND       PRES   REMARKS
BIG PINEY      FAIR      67  47  48 SW6       30.28F
PINEDALE       MOCLDY    68  46  45 N3        30.29F
DUBOIS         CLOUDY    59  50  72 SE13G18   30.31F
LANDER         CLOUDY    62  55  77 W3        30.27F
RIVERTON       PTSUNNY   67  52  58 VRB6      30.27F
CASPER         CLOUDY    64  49  57 CALM      30.29F
DOUGLAS        CLOUDY    59  53  80 E5        30.30F HAZE

$$
WYZ021-027>030-104>119-062100-
SOUTHERN WYOMING

CITY           SKY/WX    TMP DP  RH WIND       PRES   REMARKS
EVANSTON       PTSUNNY   72  52  49 CALM      30.27F
KEMMERER       FAIR      75  46  35 S12       30.29F
FORT BRIDGER   CLEAR     73  54  49 NW8       30.30F
ROCK SPRINGS   FAIR      71  50  47 VRB3      30.27F
DIXON          MOCLDY    76  50  40 W7        30.27F
RAWLINS        CLOUDY    67  51  56 E5        30.32F
SARATOGA       MOCLDY    68  52  56 NW10      30.32F
LARAMIE        CLOUDY    58  51  78 E7        30.34F
CHEYENNE       CLOUDY    57  52  83 NE9       30.33F HAZE
TORRINGTON     CLOUDY    64  52  64 E3        30.27S HAZE
PINE BLUFFS    CLOUDY    57  54  88 N9        30.32S FOG

$$


USA.gov is the U.S. government's official web portal to all federal, state and local government web resources and services.